Snowfall_Accumulation
0.0 0.0 0.0 0.0 0.0 0.0 0.0 0.0 0.0 0.0 0.0 0.0 0.0 0.0 0.0 0.0 0.0 0.0 0.0 0.0 0.0 0.0 0.0 0.0 0.0 0.0 0.0 0.0 0.0 0.0 0.0 0.1 0.3 0.0 0.0 0.1 0.0 0.0 0.0 0.0 0.0 0.0 0.0
0.0 0.0 0.0 0.0 0.0 0.0 0.0 0.0 0.0 0.0 0.0 0.0 0.0 0.0 0.0 0.0 0.0 0.0 0.0 0.0 0.0 0.0 0.0 0.0 0.0 0.0 0.0 0.0 0.0 0.0 0.1 0.1 0.5 0.8 0.6 0.5 0.4 0.2 0.2 0.2 0.1 0.1 0.1
0.0 0.0 0.0 0.0 0.0 0.0 0.0 0.0 0.0 0.0 0.0 0.0 0.0 0.0 0.0 0.0 0.0 0.0 0.1 0.1 0.1 0.0 0.0 0.0 0.1 0.1 0.1 0.1 0.1 0.1 0.3 0.4 0.9 1.3 0.6 0.3 0.3 0.2 0.2 0.1 0.1 0.1 0.0
0.0 0.0 0.0 0.0 0.0 0.0 0.0 0.0 0.0 0.0 0.0 0.0 0.0 0.0 0.1 0.3 0.2 0.2 0.1 0.1 0.1 0.1 0.1 0.1 0.1 0.1 0.3 0.5 0.7 0.7 1.3 1.2 1.1 1.4 1.5 1.1 0.8 0.5 0.5 0.6 0.5 0.2 0.2
0.1 0.0 0.0 0.0 0.1 0.0 0.1 0.2 0.2 0.0 0.0 0.0 0.0 0.1 0.1 0.3 0.2 0.2 0.2 0.2 0.2 0.2 0.2 0.3 0.4 0.4 0.3 0.5 0.9 1.3 1.3 1.6 2.2 2.8 2.5 1.7 1.0 0.7 0.6 0.6 0.7 0.4 0.3
0.1 0.1 0.1 0.1 0.1 0.1 0.3 0.3 0.0 0.4 0.4 0.1 0.2 0.1 0.1 0.2 0.1 0.2 0.3 0.5 0.4 0.6 0.7 0.7 0.9 0.8 0.5 0.5 0.6 0.9 1.7 2.8 3.5 3.9 3.4 2.5 1.3 0.9 0.7 1.0 1.4 2.0 1.5
0.1 0.1 0.2 0.2 0.1 0.1 0.1 0.5 0.2 0.5 0.5 0.6 0.4 0.2 0.3 0.3 0.1 0.2 0.5 0.7 0.9 1.0 1.1 1.1 1.0 0.9 0.8 0.6 0.6 1.1 1.5 2.1 2.6 2.9 2.8 1.7 1.3 1.1 1.8 2.8 2.8 3.1 2.2
0.2 0.2 0.2 0.3 0.4 0.6 0.8 1.1 1.2 1.2 1.3 1.5 1.3 1.1 0.9 0.7 0.4 0.6 0.9 1.0 0.9 0.9 0.8 0.7 0.7 0.5 0.5 0.9 1.5 1.9 1.5 1.1 1.0 1.0 1.1 1.1 1.0 1.1 2.3 3.7 3.5 2.5 1.0
0.8 0.7 0.9 1.0 0.9 1.5 1.9 1.9 1.8 1.6 1.7 2.1 1.9 1.9 1.5 1.1 0.3 0.3 0.7 0.9 0.9 0.7 0.6 0.5 0.6 0.6 0.7 1.9 2.7 2.8 1.6 0.6 0.4 0.5 0.9 0.9 0.9 0.8 1.0 2.4 3.5 4.7 3.5
0.8 0.9 0.8 1.1 1.4 1.3 1.9 1.8 1.9 1.9 1.9 2.1 2.2 1.5 1.2 0.9 0.5 0.4 0.4 0.6 0.6 0.6 0.6 0.4 0.5 0.7 1.5 2.7 2.9 2.8 1.8 0.8 1.1 0.9 0.5 0.3 0.3 0.1 0.4 2.0 5.8 9.9 7.6
0.9 0.7 0.9 0.7 1.3 1.2 1.3 1.6 1.3 1.8 1.7 1.6 1.3 0.8 0.6 0.3 0.2 0.2 0.3 0.7 0.9 1.1 0.9 0.5 0.3 1.0 2.1 2.6 2.1 1.3 1.4 2.1 1.7 0.8 0.5 0.3 0.4 0.3 0.4 0.8 2.8 8.9 11.9
1.1 1.1 1.1 1.3 1.3 0.8 0.9 1.1 1.2 0.9 0.7 0.6 0.4 0.3 0.3 0.2 0.2 0.2 0.5 0.9 1.4 1.7 1.4 0.8 0.8 1.7 1.8 1.3 0.7 0.9 1.5 1.6 1.1 1.1 1.2 1.0 1.2 1.0 1.1 1.2 1.4 2.7 5.5
1.3 1.3 1.3 1.2 1.0 0.7 0.6 0.5 0.6 0.5 0.6 0.7 0.5 0.5 0.5 0.3 0.2 0.3 0.6 1.1 1.6 1.6 1.3 1.5 1.7 1.3 0.9 0.6 0.6 0.9 1.1 1.5 2.3 3.2 3.2 2.6 1.8 1.9 1.7 2.4 2.4 2.9 3.7
0.5 0.7 0.8 0.9 0.9 0.8 0.3 0.3 0.3 0.4 0.6 0.7 0.6 0.6 0.7 0.4 0.3 0.4 0.9 1.1 1.3 1.4 1.5 1.5 1.1 0.6 0.6 0.7 0.8 1.2 1.5 2.0 3.5 4.6 4.2 3.3 3.0 3.5 3.8 5.2 6.5 6.7 7.4
0.4 0.5 0.4 0.6 0.9 0.6 0.5 0.2 0.4 0.3 0.5 0.9 1.0 0.9 1.0 1.0 0.7 1.5 2.0 1.8 2.1 2.2 2.2 1.2 0.8 1.2 1.1 1.2 1.3 1.4 1.9 2.3 3.1 3.8 4.4 4.6 4.4 5.1 6.1 7.1 8.9 9.8 10.2
0.6 0.6 0.5 0.6 0.6 0.5 0.6 0.5 0.2 0.1 0.2 0.5 0.5 0.9 0.9 1.0 1.2 1.6 1.8 2.3 2.4 2.0 1.7 1.8 1.7 1.9 2.1 1.9 2.1 2.4 2.6 3.0 3.7 5.0 5.4 6.0 6.9 7.5 8.5 8.8 10.2 11.5 11.0
0.7 0.7 0.7 0.6 0.7 0.7 0.7 0.7 0.7 0.3 0.3 0.4 0.3 0.5 0.6 0.8 1.0 1.2 1.6 2.0 1.4 1.2 1.5 2.2 2.4 2.5 2.6 2.6 3.0 3.5 3.8 3.8 5.2 7.0 7.7 8.2 9.3 9.5 10.3 11.0 11.2 11.0 9.8
0.6 0.6 0.7 0.7 0.8 0.7 0.8 0.9 0.9 0.9 0.8 0.4 0.4 0.3 0.4 0.6 0.7 1.0 1.4 1.1 0.8 0.9 1.5 2.1 2.5 2.8 2.9 3.3 3.7 4.7 5.2 5.5 6.4 7.8 8.6 9.1 10.6 11.7 12.0 11.5 11.0 10.5 9.7
0.7 0.7 0.7 0.7 0.8 0.9 0.8 0.7 0.9 1.0 1.0 0.8 0.7 0.8 0.6 0.4 0.6 0.8 1.0 1.1 1.5 1.8 1.8 1.7 1.8 2.4 3.1 3.6 4.2 5.0 6.2 7.4 8.7 10.4 10.8 11.1 11.7 13.5 13.6 11.4 10.2 8.9 8.2
0.7 0.9 0.8 0.8 1.0 1.1 1.2 1.0 1.1 1.1 1.4 1.1 1.1 1.1 1.3 1.7 1.7 1.3 1.3 1.5 2.1 2.2 2.2 2.3 2.1 2.1 3.1 3.8 4.6 5.6 7.0 8.1 9.3 10.3 10.9 11.2 11.6 12.8 12.6 10.3 8.5 8.0 7.2
0.8 0.8 0.9 0.9 1.1 1.2 1.4 1.5 1.6 1.7 1.7 1.6 1.5 1.4 1.9 2.7 2.0 1.7 1.9 2.2 2.4 2.9 3.0 3.1 3.1 3.0 3.7 4.4 5.3 6.3 7.6 8.7 9.5 11.1 11.5 11.1 10.8 10.3 8.6 7.9 7.5 7.5 7.6
1.1 0.9 1.1 1.2 1.2 1.5 1.9 2.0 1.9 2.0 1.9 1.9 1.6 1.8 1.9 2.0 1.7 1.7 1.9 1.7 1.8 2.1 2.7 3.5 3.8 3.8 5.1 7.4 9.2 10.1 9.7 9.5 10.0 11.4 11.7 10.7 9.7 8.5 7.7 7.8 7.7 7.8 7.7
1.2 1.3 1.4 1.3 1.5 1.8 2.0 2.0 2.1 2.3 2.4 2.3 2.4 2.3 2.2 2.3 1.9 2.0 1.9 1.8 1.8 1.9 1.8 2.8 3.8 3.5 4.2 6.5 9.3 13.0 14.6 12.7 11.7 12.4 12.9 11.4 9.7 9.0 9.1 9.2 8.4 8.3 7.9
1.3 1.5 1.8 1.7 1.8 2.0 2.1 2.1 2.1 2.3 2.5 2.5 2.5 2.5 2.6 2.5 2.6 2.3 2.1 2.1 2.0 1.9 2.0 2.8 3.5 3.9 4.6 6.8 8.6 10.4 12.0 13.3 15.1 14.9 14.4 13.9 11.7 9.9 9.6 9.2 8.2 7.7 7.6
1.7 1.8 2.1 2.1 2.2 2.2 2.4 2.3 2.3 2.4 2.6 2.7 2.7 2.6 2.6 2.7 2.6 2.5 2.5 2.5 2.3 2.4 2.1 2.8 3.6 4.6 5.4 6.8 8.5 9.8 10.4 11.7 13.1 13.4 12.8 12.0 10.7 9.2 9.2 8.8 8.1 7.4 7.4
2.0 2.3 2.4 2.5 2.6 2.3 2.6 2.7 2.8 2.9 3.1 3.1 3.1 3.1 3.2 3.1 2.9 2.8 2.9 3.1 3.3 3.1 2.7 2.9 3.4 4.7 6.0 7.1 7.7 8.9 10.0 9.7 8.0 7.3 9.1 10.4 9.8 8.3 8.4 8.9 8.1 7.7 7.6